Orbital elements of CZ-2C R/B
| Launched | 28 July 2011 |
| Flight ended | – |
| Launch site | Jiuquan Space Center, PRC |
| Owner | People's Republic of China |
| NORAD ID | 37766 |
| Date fetched |
Epoch osculation |
Inc. [°] |
Ecc. | RA asc node [hr] |
Arg Peri. [°] |
Mean anom [°] |
Mean motion [rev/day] |
Abs. mag |
| Date fetched |
Epoch osculation |
Inc. [°] |
Ecc. | RA asc node [hr] |
Arg Peri. [°] |
Mean anom [°] |
Mean motion [rev/day] |
Abs. mag |
| 2026 May 01 17:56 | 2026 Apr 30 14:28:53 | 98.1101 | 0.00440 | 1.2377 | 101.6584 | 258.9565 | 14.70313 | 5.243 |
| 2026 Apr 30 17:56 | 2026 Apr 30 14:28:53 | 98.1101 | 0.00440 | 1.2377 | 101.6584 | 258.9565 | 14.70313 | 5.243 |
| 2026 Apr 29 17:57 | 2026 Apr 24 11:29:06 | 98.1106 | 0.00438 | 0.8317 | 120.5696 | 258.9565 | 14.70313 | 5.243 |
| 2026 Apr 28 17:56 | 2026 Apr 24 11:29:06 | 98.1106 | 0.00438 | 0.8317 | 120.5696 | 258.9565 | 14.70313 | 5.243 |
| 2026 Apr 27 17:58 | 2026 Apr 24 11:29:06 | 98.1106 | 0.00438 | 0.8317 | 120.5696 | 258.9565 | 14.70313 | 5.243 |
| 2026 Apr 26 17:58 | 2026 Apr 24 11:29:06 | 98.1106 | 0.00438 | 0.8317 | 120.5696 | 258.9565 | 14.70313 | 5.243 |
| 2026 Apr 25 17:58 | 2026 Apr 24 11:29:06 | 98.1106 | 0.00438 | 0.8317 | 120.5696 | 258.9565 | 14.70313 | 5.243 |
| 2026 Apr 24 17:59 | 2026 Apr 24 11:29:06 | 98.1106 | 0.00438 | 0.8317 | 120.5696 | 258.9565 | 14.70313 | 5.243 |
| 2026 Apr 23 17:57 | 2026 Apr 19 10:37:14 | 98.1110 | 0.00436 | 0.4978 | 136.1925 | 258.9565 | 14.70313 | 5.243 |
| 2026 Apr 22 17:57 | 2026 Apr 19 10:37:14 | 98.1110 | 0.00436 | 0.4978 | 136.1925 | 258.9565 | 14.70313 | 5.243 |
| 2026 Apr 21 17:57 | 2026 Apr 19 10:37:14 | 98.1110 | 0.00436 | 0.4978 | 136.1925 | 258.9565 | 14.70313 | 5.243 |
| 2026 Apr 20 17:57 | 2026 Apr 19 10:37:14 | 98.1110 | 0.00436 | 0.4978 | 136.1925 | 258.9565 | 14.70313 | 5.243 |
| 2026 Apr 19 17:58 | 2026 Apr 19 10:37:14 | 98.1110 | 0.00436 | 0.4978 | 136.1925 | 258.9565 | 14.70313 | 5.243 |
| 2026 Apr 18 17:56 | 2026 Apr 13 04:21:22 | 98.1118 | 0.00432 | 0.0827 | 155.7599 | 258.9565 | 14.70313 | 5.243 |
| 2026 Apr 16 17:57 | 2026 Apr 13 04:21:22 | 98.1118 | 0.00432 | 0.0827 | 155.7599 | 258.9565 | 14.70313 | 5.243 |
| 2026 Apr 14 17:57 | 2026 Apr 13 04:21:22 | 98.1118 | 0.00432 | 0.0827 | 155.7599 | 258.9565 | 14.70313 | 5.243 |
| 2026 Apr 13 17:57 | 2026 Apr 13 04:21:22 | 98.1118 | 0.00432 | 0.0827 | 155.7599 | 258.9565 | 14.70313 | 5.243 |
| 2026 Apr 12 17:57 | 2026 Apr 08 14:55:26 | 98.1122 | 0.00428 | 23.7804 | 170.1727 | 258.9565 | 14.70313 | 5.243 |
| 2026 Apr 11 17:57 | 2026 Apr 08 14:55:26 | 98.1122 | 0.00428 | 23.7804 | 170.1727 | 258.9565 | 14.70313 | 5.243 |
| 2026 Apr 10 17:58 | 2026 Apr 08 14:55:26 | 98.1122 | 0.00428 | 23.7804 | 170.1727 | 258.9565 | 14.70313 | 5.243 |
| 2026 Apr 09 18:01 | 2026 Apr 08 14:55:26 | 98.1122 | 0.00428 | 23.7804 | 170.1727 | 258.9565 | 14.70313 | 5.243 |
| 2026 Apr 08 17:57 | 2026 Apr 08 14:55:26 | 98.1122 | 0.00428 | 23.7804 | 170.1727 | 258.9565 | 14.70313 | 5.243 |
| 2026 Apr 07 17:57 | 2026 Apr 02 07:01:29 | 98.1130 | 0.00424 | 23.3607 | 190.3374 | 258.9565 | 14.70313 | 5.243 |
| 2026 Apr 06 17:57 | 2026 Apr 02 07:01:29 | 98.1130 | 0.00424 | 23.3607 | 190.3374 | 258.9565 | 14.70313 | 5.243 |
| 2026 Apr 05 17:56 | 2026 Apr 02 07:01:29 | 98.1130 | 0.00424 | 23.3607 | 190.3374 | 258.9565 | 14.70313 | 5.243 |
| 2026 Apr 04 17:57 | 2026 Apr 02 07:01:29 | 98.1130 | 0.00424 | 23.3607 | 190.3374 | 258.9565 | 14.70313 | 5.243 |